Back to catalog

AO-95

AliveAmateur RadioSSO
NORAD 43770·PAYLOAD·🇺🇸 United States

Launched Dec 3, 2018 from Vandenberg Space Force Base

Loading…

Next Passes (next 24 hours)

TLE

FreshSource: Space-Track

Epoch: Sep 14, 2026, 14:57 UTC

1 43770U 18099N   26257.62311903  .00008878  00000-0  32330-3 0  9990
2 43770  97.4286 317.6039 0009013  41.0365 319.1551 15.28407823426872

Track AO-95 in real time with AllMySat

Download on the App Store